This demonstration page uses our WeatherBlox Daily Observations layout. Learn more.

Left ArrowRight Arrow

Hourly Observations for August 27, 2015

Temp ( °F °C ) Dew Point ( °F °C ) Humidity (%) Winds ( mph kmh ) Pressure ( in mb ) Visibility ( mi km ) Precip ( " mm )
12:15 am 00:15 Clear 74 23.1 70 21.3 90 90 ESE 7 11 29.91 1013 10 16 N/A
12:35 am 00:35 Clear 73 22.5 70 21.1 92 92 SE 6 9 29.91 1013 7 11 N/A
12:55 am 00:55 Clear 72 22 69 20.6 92 92 ESE 6 9 29.88 1012 7 11 N/A
1:15 am 01:15 Clear 71 21.5 68 20.2 92 92 ESE 3 6 29.88 1012 7 11 N/A
1:35 am 01:35 Clear 70 21.2 68 20.1 93 93 SE 5 7 29.88 1012 7 11 N/A
1:55 am 01:55 Clear 71 21.7 69 20.6 94 94 SE 5 7 29.88 1012 10 16 N/A
2:15 am 02:15 Clear with Mist and Fog 68 20 66 18.8 93 93 E 6 9 29.88 1012 4 6 N/A
2:35 am 02:35 Clear with Mist and Fog 68 20 67 19.2 95 95 ESE 5 7 29.88 1012 5 8 N/A
2:55 am 02:55 Clear 69 20.8 68 20 95 95 E 7 11 29.88 1012 7 11 N/A
3:15 am 03:15 Clear 70 21.3 69 20.5 95 95 ESE 6 9 29.88 1012 7 11 N/A
3:35 am 03:35 Clear 70 21.1 68 20.1 94 94 SE 6 9 29.88 1012 7 11 N/A
3:55 am 03:55 Clear 70 21.1 68 20.1 94 94 ESE 6 9 29.88 1012 7 11 N/A
4:15 am 04:15 Clear 70 21 68 20 94 94 ESE 5 7 29.88 1012 7 11 N/A
4:35 am 04:35 Clear 70 21 68 20 94 94 SE 6 9 29.88 1012 7 11 N/A
4:55 am 04:55 Clear 69 20.6 67 19.6 94 94 ESE 6 9 29.88 1012 7 11 N/A
5:15 am 05:15 Clear with Mist and Fog 68 20.1 66 19.1 94 94 ESE 5 7 29.85 1011 5 8 N/A
5:35 am 05:35 Clear with Mist and Fog 67 19.3 65 18.5 95 95 SE 6 9 29.88 1012 5 8 N/A
5:55 am 05:55 Clear with Mist and Fog 66 19.1 65 18.3 95 95 ESE 5 7 29.88 1012 5 8 N/A
6:15 am 06:15 Clear with Mist and Fog 65 18.4 64 17.5 95 95 ESE 5 7 29.88 1012 5 8 N/A
6:35 am 06:35 Clear with Mist and Fog 64 18 63 17.3 96 96 SE 5 7 29.88 1012 4 6 N/A
6:55 am 06:55 Clear 65 18.5 64 17.6 95 95 SE 3 6 29.88 1012 7 11 N/A
7:15 am 07:15 Sunny 65 18.4 63 17.4 94 94 SE 6 9 29.88 1012 7 11 N/A
7:35 am 07:35 Sunny 64 17.5 62 16.4 93 93 ESE 5 7 29.88 1012 7 11 N/A
7:55 am 07:55 Sunny 64 17.9 63 17.1 95 95 ESE 5 7 29.88 1012 7 11 N/A
8:15 am 08:15 Sunny 66 18.7 64 17.8 95 95 ENE 6 9 29.88 1012 7 11 N/A
8:35 am 08:35 Sunny with Mist and Fog 67 19.5 65 18.5 94 94 ENE 8 13 29.85 1011 5 8 N/A
8:55 am 08:55 Sunny 69 20.8 67 19.6 93 93 E 8 13 29.85 1011 7 11 N/A
9:15 am 09:15 Sunny 71 21.9 68 20 89 89 E 8 13 29.85 1011 10 16 N/A
9:35 am 09:35 Sunny 73 23 68 20.2 84 84 E 9 15 29.83 1010 10 16 N/A
9:55 am 09:55 Sunny 74 23.5 69 20.4 83 83 ESE 8 13 29.80 1009 10 16 N/A
10:15 am 10:15 Sunny 75 24 68 20 78 78 ESE 9 15 29.80 1009 10 16 N/A
10:35 am 10:35 Sunny 76 24.2 68 19.9 77 77 SE 8 13 29.80 1009 10 16 N/A
10:55 am 10:55 Sunny 76 24.6 68 20 76 76 ESE 8 13 29.80 1009 10 16 N/A
11:15 am 11:15 Sunny 79 26.1 69 20.7 72 72 ESE 8 13 29.77 1008 10 16 N/A
11:35 am 11:35 Sunny 78 25.7 68 20.1 71 71 SE 7 11 29.77 1008 10 16 N/A
11:55 am 11:55 Sunny 78 25.6 69 20.5 73 73 ESE 10 17 29.77 1008 10 16 N/A
12:15 pm 12:15 Sunny 78 25.7 69 20.4 73 73 ESE 9 15 29.77 1008 10 16 N/A
12:35 pm 12:35 Sunny 78 25.5 69 20.5 74 74 SE 9 15 29.77 1008 10 16 N/A
12:55 pm 12:55 Sunny 79 26 70 21 74 74 SE 9 15 29.77 1008 10 16 N/A
1:15 pm 13:15 Sunny 79 26.2 70 21.1 74 74 ESE 13 20 29.74 1007 10 16 N/A
1:35 pm 13:35 Sunny 79 26.1 70 21 74 74 SE 12 19 29.74 1007 10 16 N/A
1:55 pm 13:55 Sunny 79 26.3 70 21.3 74 74 ESE 13 20 29.74 1007 10 16 N/A
2:15 pm 14:15 Sunny 81 27.1 71 21.8 73 73 ESE 13 20 29.74 1007 10 16 N/A
2:35 pm 14:35 Sunny 84 28.8 72 22.3 68 68 ESE 16 26 29.74 1007 10 16 N/A
2:55 pm 14:55 Sunny 83 28.5 71 21.6 66 66 ESE 12 19 29.74 1007 10 16 N/A
3:15 pm 15:15 Sunny 83 28.5 71 21.5 66 66 ESE 16 26 29.68 1005 10 16 N/A
3:35 pm 15:35 Sunny 84 29 70 21.3 63 63 ESE 13 20 29.68 1005 10 16 N/A
3:55 pm 15:55 Sunny 85 29.6 70 20.9 60 60 SE 17 28 29.65 1004 10 16 N/A
4:15 pm 16:15 Sunny 87 30.4 71 21.5 59 59 ESE 13 20 29.65 1004 10 16 N/A
4:35 pm 16:35 Sunny 90 32 71 21.5 54 54 ESE 15 24 29.65 1004 10 16 N/A
4:55 pm 16:55 Sunny 89 31.9 71 21.5 54 54 ESE 12 19 29.65 1004 10 16 N/A
5:15 pm 17:15 Sunny 88 31 71 21.8 58 58 ESE 10 17 29.62 1003 10 16 N/A
5:35 pm 17:35 Sunny 89 31.7 72 22.1 57 57 ESE 12 19 29.62 1003 10 16 N/A
5:55 pm 17:55 Sunny 90 32.1 71 21.8 54 54 ESE 10 17 29.56 1001 10 16 N/A
6:15 pm 18:15 Sunny 91 32.5 69 20.5 49 49 SSE 6 9 29.56 1001 10 16 N/A
6:35 pm 18:35 Sunny with Nearby Thunderstorms 91 32.9 69 20.3 47 47 WSW 3 6 29.56 1001 10 16 N/A
6:55 pm 18:55 Sunny 90 32.2 71 21.4 53 53 WNW 5 7 29.56 1001 10 16 N/A
7:15 pm 19:15 Sunny 88 31.2 73 23 62 62 NW 5 7 29.59 1002 10 16 N/A
7:35 pm 19:35 Sunny 86 30 74 23.6 69 69 NNW 9 15 29.62 1003 10 16 N/A
7:55 pm 19:55 Sunny 82 27.5 71 21.5 70 70 N 16 26 29.65 1004 10 16 N/A
8:15 pm 20:15 Sunny 79 26 70 21 74 74 NNE 12 19 29.68 1005 10 16 N/A
8:35 pm 20:35 Clear 79 26.1 70 21 74 74 ENE 7 11 29.68 1005 10 16 N/A
8:55 pm 20:55 Clear 78 25.4 70 20.9 76 76 SE 6 9 29.71 1006 10 16 N/A
9:15 pm 21:15 Clear 77 25 69 20.7 77 77 SSE 6 9 29.71 1006 10 16 N/A
9:35 pm 21:35 Clear 75 23.8 69 20.6 82 82 SSE 3 6 29.71 1006 10 16 N/A
9:55 pm 21:55 Clear 72 22.3 68 20.1 87 87 WNW 5 7 29.74 1007 10 16 N/A
10:15 pm 22:15 Clear 71 21.8 68 20.1 90 90 NW 8 13 29.74 1007 10 16 N/A
10:35 pm 22:35 Clear 72 22 68 20.1 89 89 NW 13 20 29.74 1007 10 16 N/A
10:55 pm 22:55 Clear 71 21.6 67 19.6 88 88 NW 9 15 29.74 1007 10 16 N/A
11:15 pm 23:15 Clear 70 21.2 67 19.5 90 90 NW 7 11 29.80 1009 10 16 N/A
11:35 pm 23:35 Clear 70 21.1 67 19.7 92 92 WNW 9 15 29.77 1008 10 16 N/A
11:55 pm 23:55 Clear 71 21.5 68 20 91 91 NW 7 11 29.80 1009 10 16 N/A

Powered by AerisWeather